Wind_Speed
30 30 30 30 30 30 31 32 32 32 33 34 34 34 35 35 35 35 35 35 36 37 39 40 40 39 38 37 35 33 31 31 32 34 36 36 35 34 34 34 34 34 35 36 37 38 38 38 39 39 39 39 39 39 40 40 41 40 39 38 38 37 37 37 37 37 36 36 36 35 35 35 35 35 35 35 36 36 36 36 36 36 36 37 37 37
30 29 29 29 29 29 29 30 30 31 31 31 31 31 31 31 31 31 31 31 32 33 34 35 36 37 37 36 35 33 31 30 30 31 32 33 33 34 34 34 35 35 36 36 37 37 38 38 38 38 39 39 39 40 40 41 41 41 40 39 39 38 37 37 36 36 35 35 35 34 34 34 34 34 34 35 35 35 35 35 35 36 36 36 36 37
29 29 29 29 29 29 29 29 29 30 30 30 30 30 30 29 29 29 29 29 29 29 30 31 32 33 33 34 33 32 31 30 30 30 30 31 32 32 33 34 34 35 35 35 36 36 37 37 37 38 38 39 39 40 40 40 40 40 40 39 38 37 36 36 35 35 34 34 34 33 33 33 33 33 34 34 34 34 35 35 35 35 35 36 36 36
28 29 29 29 29 29 29 29 29 29 29 29 29 29 29 29 29 28 28 28 28 28 29 29 30 31 31 31 31 31 31 30 30 30 30 30 30 31 31 32 32 33 33 34 34 35 35 36 36 37 38 38 39 39 39 39 39 39 38 38 37 36 35 35 34 34 33 33 33 33 33 33 33 33 33 33 34 34 34 35 35 35 35 36 36 36
28 29 29 29 29 29 30 29 29 29 29 29 29 29 29 28 28 28 28 28 28 29 29 29 30 30 30 30 30 29 29 29 29 29 30 30 30 30 30 31 31 32 32 32 33 33 34 34 35 35 36 36 37 37 37 37 37 37 37 36 35 35 34 34 34 33 33 33 33 33 33 33 33 33 33 33 34 34 34 34 35 35 35 35 36 36
29 29 29 29 29 30 30 29 29 30 29 29 29 29 29 29 28 28 28 28 29 29 29 29 30 30 29 29 29 29 29 29 29 29 29 30 30 30 30 30 31 31 31 31 32 32 32 32 33 33 33 34 34 34 35 35 35 35 35 35 34 34 34 33 33 33 33 33 33 33 33 33 33 33 33 33 34 34 34 34 35 35 35 35 36 36
29 29 30 30 30 30 30 30 30 30 30 29 29 29 29 29 29 29 29 29 29 29 29 30 30 29 29 29 28 28 28 28 28 29 29 29 29 29 30 30 30 30 30 30 30 30 30 30 30 30 31 31 31 32 32 33 33 33 33 33 33 33 33 33 33 33 33 33 33 33 33 33 33 33 33 33 33 34 34 34 34 35 35 35 36 36
29 30 31 31 31 31 31 31 31 31 30 30 29 29 30 30 30 30 30 29 29 29 30 30 29 29 28 28 28 28 28 28 28 28 28 28 29 29 29 29 29 29 29 29 29 29 29 29 29 29 29 29 29 30 30 31 31 31 32 32 32 33 33 33 33 33 33 33 33 33 33 33 33 33 33 33 33 33 33 34 34 34 35 35 35 36
30 31 31 32 32 32 31 32 32 31 31 31 30 30 31 31 31 31 30 30 29 30 30 30 29 29 28 28 28 28 28 27 27 27 28 28 28 28 28 28 28 28 28 28 28 28 28 28 28 28 28 28 28 28 28 29 29 30 30 31 31 32 32 32 33 33 33 33 33 33 33 33 33 33 33 32 33 33 33 33 33 34 34 35 35 36
29 31 32 33 33 33 33 32 32 32 31 31 31 31 31 31 31 31 30 30 30 30 30 30 29 29 29 29 28 28 28 27 27 27 27 27 28 28 28 28 28 28 28 27 27 27 27 27 27 27 27 27 27 27 27 27 28 28 29 29 30 30 31 32 32 32 33 33 33 33 33 33 32 32 32 32 32 32 32 33 33 34 34 35 35 36
29 31 32 33 34 34 34 33 33 32 32 32 32 32 32 31 31 31 30 30 30 30 30 31 30 30 29 29 29 29 28 27 27 27 27 27 28 28 28 27 27 27 27 27 27 27 27 27 27 27 27 27 27 27 26 26 26 27 27 28 29 29 30 31 31 32 32 32 32 32 32 32 32 32 32 32 32 32 32 33 33 34 34 35 35 36
30 31 33 34 34 35 35 35 34 33 32 32 33 33 33 32 31 30 30 29 29 30 31 32 31 30 30 29 29 29 28 26 26 26 26 27 27 27 27 27 26 26 27 27 27 27 27 28 28 28 27 27 27 26 26 26 26 26 27 27 28 29 29 30 30 31 31 31 31 31 31 31 31 31 31 31 31 32 32 32 33 33 34 35 35 35
32 33 33 34 35 36 37 36 35 34 33 33 34 34 34 33 32 31 30 30 29 30 32 32 32 31 30 29 29 28 27 26 25 25 25 26 27 27 26 26 26 26 26 27 27 28 28 28 28 28 27 27 26 26 25 25 26 26 27 27 28 28 29 29 30 30 30 31 31 31 30 30 30 30 30 31 31 31 32 32 33 33 34 34 35 35
34 34 35 36 37 37 38 38 38 37 36 35 35 35 35 34 34 33 33 33 32 32 33 33 31 29 28 28 29 29 28 27 25 24 25 26 27 27 26 25 25 26 26 27 28 28 28 28 27 27 26 26 25 25 25 25 25 26 26 27 28 28 29 29 30 30 30 30 30 30 29 29 29 29 30 30 30 31 32 32 33 33 34 34 35 36
35 36 36 37 38 38 39 39 39 39 38 37 36 36 35 35 36 36 37 36 36 35 34 33 31 29 28 30 31 31 30 28 26 25 26 28 28 28 26 26 26 27 27 27 28 28 28 27 27 27 26 25 24 24 24 24 24 25 25 26 27 28 29 29 30 30 30 30 30 29 29 29 29 29 29 30 30 31 31 32 33 33 34 35 35 36
36 36 37 38 38 39 39 39 39 39 39 38 37 37 37 37 38 38 39 39 39 38 37 35 32 32 33 35 35 33 31 29 28 27 28 31 31 30 28 28 28 28 28 28 29 29 29 28 28 27 26 25 25 25 24 24 24 24 25 26 27 28 28 29 29 30 30 30 29 29 29 29 29 29 29 29 30 30 31 32 33 33 34 35 35 36
35 36 37 38 38 38 38 39 39 39 39 38 38 38 38 38 39 39 39 40 40 40 39 37 35 36 39 39 38 36 33 31 30 30 32 34 35 34 32 30 30 30 29 29 30 30 30 29 28 28 27 26 26 25 25 24 24 24 25 25 26 27 28 28 29 29 29 29 29 29 29 29 29 29 29 29 30 30 31 32 32 33 34 35 35 36
34 35 36 37 38 38 38 38 39 39 38 38 37 38 38 39 39 39 40 41 41 41 41 38 37 38 39 38 37 35 35 33 32 32 34 36 37 37 35 34 33 32 31 31 32 32 31 30 30 29 28 28 27 27 26 25 25 25 25 25 26 26 27 28 28 29 29 29 30 29 29 29 29 29 29 29 30 30 31 32 33 33 34 35 35 36
34 35 36 37 37 38 37 38 38 38 37 37 37 37 37 38 39 39 40 40 41 41 41 40 39 39 38 36 35 36 36 35 34 34 35 37 38 38 38 37 37 36 34 34 34 34 32 31 31 30 29 29 28 27 27 26 25 25 25 25 26 26 27 27 28 29 29 30 30 30 30 30 30 30 30 30 30 31 31 32 33 34 34 35 35 36
33 35 36 37 37 37 37 37 37 37 36 36 36 36 37 38 39 39 39 40 40 40 41 40 41 41 41 39 38 37 37 36 35 35 36 37 38 39 40 40 40 40 38 37 36 35 33 32 31 30 30 29 29 28 27 26 25 25 25 25 26 27 27 28 28 28 29 30 30 30 30 31 31 31 31 31 31 31 32 32 33 34 34 35 36 36
31 33 35 37 37 38 38 38 37 36 36 36 36 36 37 37 38 38 39 40 40 40 40 41 42 43 43 43 41 40 38 36 36 37 37 38 39 41 42 43 44 43 42 40 39 37 35 32 31 30 30 30 29 28 27 26 26 26 26 26 27 28 28 28 28 29 29 30 30 31 31 32 32 32 32 32 32 32 33 33 34 34 35 35 36 36
30 30 32 34 35 36 37 37 37 36 36 36 36 36 37 37 37 38 39 39 40 40 40 42 43 43 43 44 43 41 39 38 38 38 37 37 39 41 44 46 47 47 46 44 42 39 36 34 32 32 32 31 29 28 27 27 27 28 28 29 29 30 30 29 29 29 29 30 31 31 32 32 33 33 33 33 33 34 34 34 34 35 35 36 36 36
32 30 29 30 32 33 35 36 36 36 36 36 36 37 37 37 38 38 39 39 40 41 41 42 42 42 42 42 42 41 40 40 41 40 39 37 37 38 41 44 47 49 49 47 45 42 39 36 34 34 33 32 30 29 28 29 30 31 31 32 32 32 31 31 30 30 30 31 32 32 33 33 34 34 34 35 35 35 35 35 35 36 36 36 36 36
33 31 28 28 28 30 31 32 34 34 34 35 35 36 37 37 38 39 39 39 40 41 41 41 41 41 41 42 42 42 41 42 42 42 42 40 37 36 36 39 42 45 46 46 44 41 38 37 36 35 34 32 31 31 32 33 34 34 35 35 34 34 33 32 32 31 32 32 33 34 34 35 35 35 36 36 36 36 36 36 36 36 36 36 36 36
34 32 30 28 27 27 28 30 31 32 32 32 33 33 34 36 37 38 39 39 40 40 41 40 40 41 42 42 42 42 42 42 43 43 43 41 38 35 34 36 37 39 39 39 38 36 35 35 35 35 34 33 33 34 35 37 38 38 38 37 37 36 35 34 33 33 33 34 35 35 35 36 36 36 37 37 37 37 37 37 37 37 36 36 36 36
34 34 32 29 27 27 27 29 30 30 30 30 30 31 31 32 34 35 37 38 39 40 40 40 40 41 41 40 41 41 42 42 43 43 43 42 38 35 34 35 36 36 35 34 33 33 33 34 35 35 35 36 37 37 38 39 40 40 40 39 38 37 36 35 35 35 35 36 36 36 37 37 37 38 37 37 37 37 38 38 37 37 37 36 36 35
33 34 34 32 30 28 27 28 29 30 31 31 31 30 30 30 30 32 34 36 37 38 39 39 39 39 38 37 38 39 41 42 43 43 43 41 38 34 33 33 35 36 35 35 35 35 36 36 36 37 37 38 38 39 39 40 41 41 41 40 39 38 37 36 36 36 37 37 37 38 38 38 38 38 38 38 38 38 38 38 38 37 37 36 35 35
31 33 34 34 33 31 29 28 29 30 31 32 33 32 31 30 30 31 31 32 34 35 37 38 38 37 36 36 37 38 40 41 42 43 43 42 39 35 33 32 32 33 34 34 36 37 38 39 38 38 38 38 37 37 38 39 40 41 41 40 40 39 38 38 37 38 38 38 39 39 39 39 39 39 39 39 39 39 39 39 38 37 36 35 35 34
28 30 33 34 35 34 32 30 29 29 31 32 34 35 34 33 33 32 31 30 31 32 34 36 37 37 36 36 37 38 40 42 42 43 43 43 41 38 34 32 31 31 32 32 34 37 39 39 38 37 36 36 35 35 37 38 39 40 40 39 39 39 39 39 39 39 39 39 40 40 40 40 40 40 40 40 40 40 40 39 38 37 36 35 34 33
27 28 30 32 34 35 35 33 32 30 30 31 32 34 35 35 35 34 33 31 31 32 33 34 36 37 38 38 39 39 41 42 42 42 43 44 44 42 38 35 33 32 32 32 33 35 38 39 38 36 35 34 34 35 36 37 38 38 38 39 39 39 39 39 39 40 40 40 41 41 41 41 41 41 41 41 41 41 40 39 38 37 35 34 33 32
27 28 28 30 32 34 35 35 35 33 32 31 31 32 33 34 35 35 34 33 33 32 32 33 35 37 39 40 40 41 41 41 41 41 42 44 45 45 43 40 37 35 34 35 35 36 37 38 38 37 36 35 35 36 37 37 38 38 38 38 38 39 39 39 40 40 41 41 41 41 42 42 42 42 41 41 41 40 40 39 37 36 35 33 32 32
28 28 28 29 30 32 33 35 35 35 34 33 32 31 31 32 33 34 34 35 34 34 34 34 35 37 38 40 41 42 41 40 40 40 41 43 46 47 46 44 42 40 39 39 39 39 39 39 39 39 38 38 38 38 38 38 38 38 38 38 38 38 39 40 40 41 41 42 42 42 42 42 42 42 42 42 41 40 39 38 37 35 34 33 32 31
29 29 29 29 30 30 31 33 34 35 35 35 34 33 32 32 32 33 34 35 35 36 36 37 37 38 40 41 42 42 41 41 40 41 41 43 45 47 47 47 46 44 43 43 43 42 42 41 41 41 41 41 41 40 40 40 40 40 39 39 38 39 40 41 41 42 43 43 43 43 43 43 43 42 42 42 41 40 39 37 36 35 34 32 31 31
30 30 30 30 30 30 31 31 32 33 34 34 35 34 34 33 33 33 34 34 35 37 37 39 40 41 42 43 44 44 43 43 43 43 43 43 45 46 48 48 48 48 47 47 46 45 44 44 44 43 43 44 43 43 42 42 42 41 41 40 40 40 41 42 43 44 44 44 44 44 44 44 43 43 43 42 41 39 38 37 36 35 34 32 31 30
32 31 31 31 31 31 31 31 31 31 32 33 34 34 35 35 34 34 34 34 35 36 37 38 40 41 42 44 45 46 46 46 46 46 46 45 45 46 46 47 48 49 48 48 47 46 45 45 45 45 45 45 45 45 45 44 43 43 42 42 42 42 43 44 45 45 46 45 45 45 45 45 44 44 43 42 40 39 37 36 36 35 33 32 31 30
34 33 33 33 33 32 32 32 32 31 31 32 33 33 34 35 35 35 35 35 35 35 36 37 38 39 40 42 43 45 46 47 48 48 48 46 45 45 44 45 46 46 45 45 45 44 43 43 44 45 44 44 44 45 45 45 44 43 43 43 44 44 45 46 46 47 47 46 46 46 45 45 45 44 43 41 40 38 37 36 35 34 33 32 31 30
35 35 35 35 35 35 35 34 34 33 33 33 33 33 34 35 35 36 36 36 36 36 35 35 36 37 38 39 40 41 43 45 47 47 47 47 46 44 42 42 42 42 41 40 40 40 40 40 40 41 42 42 42 43 44 44 43 43 43 44 45 46 46 47 48 47 47 46 46 46 46 45 45 44 43 41 39 38 37 36 35 34 33 32 31 30
32 34 35 36 36 37 37 37 37 36 36 35 35 35 35 35 36 36 37 38 38 37 37 36 36 36 36 37 38 39 40 42 43 44 45 44 44 42 41 40 39 39 39 38 37 37 37 37 37 37 38 40 41 41 42 42 42 43 44 45 46 46 47 48 48 48 47 47 46 46 46 45 45 43 42 40 39 38 37 36 35 34 33 32 31 30
28 29 31 33 35 36 37 38 38 38 38 38 38 38 38 37 38 38 38 38 39 39 39 39 38 38 37 37 37 37 38 39 40 41 42 41 41 40 39 38 38 38 38 37 36 36 36 36 36 37 37 38 40 40 41 41 42 43 44 45 46 47 48 48 48 48 47 47 46 46 46 45 44 43 41 40 39 37 37 36 35 34 33 32 31 30
23 24 26 28 30 31 33 34 35 36 37 38 39 39 40 39 40 40 40 40 40 40 41 41 41 41 40 39 38 38 38 38 39 39 40 40 40 40 39 39 39 39 38 38 37 37 36 37 37 38 39 39 40 41 41 42 43 44 45 46 47 48 48 48 48 48 47 47 46 46 45 44 43 42 41 40 39 38 37 36 35 34 33 32 31 30
19 20 21 23 24 26 27 29 31 32 34 35 36 37 37 38 39 39 40 40 41 41 41 42 42 43 43 43 42 41 40 39 39 39 40 40 40 41 41 41 41 41 41 40 40 39 39 39 39 39 40 40 41 42 42 43 44 45 46 46 47 48 48 48 47 47 46 46 46 45 45 44 43 42 41 40 39 38 37 36 35 34 33 32 31 30
16 17 18 19 20 21 23 24 25 27 28 29 30 31 32 33 34 35 36 37 38 39 40 41 42 43 44 45 45 44 44 43 42 42 42 42 42 42 42 43 43 43 43 43 43 42 42 41 41 41 41 41 41 42 43 44 45 45 45 46 46 47 47 47 46 46 45 45 45 45 44 43 42 42 41 40 39 38 36 35 34 34 33 32 31 29
16 16 17 18 18 19 19 20 21 21 22 23 24 26 27 28 29 30 31 32 33 35 36 38 39 41 43 44 45 46 46 46 45 45 44 44 44 44 44 44 45 45 45 45 44 44 44 44 43 43 43 43 43 43 43 44 45 45 46 46 46 45 45 45 45 45 45 45 44 44 43 43 42 41 40 40 38 37 36 35 34 33 32 31 30 29
16 17 17 17 17 17 18 18 18 19 20 20 21 22 23 24 25 26 27 27 29 30 31 33 35 37 39 41 43 44 45 46 46 46 46 46 45 45 45 45 45 46 45 45 45 45 45 45 45 45 45 44 44 44 45 45 45 46 46 46 46 45 45 45 45 45 44 44 43 43 42 42 41 40 40 39 38 36 35 34 33 33 32 31 29 28
17 17 17 17 17 17 17 17 18 18 19 19 20 20 21 22 22 23 24 24 25 26 27 29 30 32 33 36 38 40 42 43 44 44 45 45 45 44 44 44 44 44 45 45 45 45 45 45 46 46 46 46 46 46 46 46 46 47 47 46 46 45 45 45 44 44 43 43 42 42 41 40 40 39 38 37 36 35 34 33 32 32 31 30 29 28
18 18 18 18 18 18 18 18 18 18 19 19 19 20 20 21 21 22 22 23 23 24 25 26 26 28 29 32 34 35 37 38 39 40 41 41 42 42 42 42 42 42 42 43 43 44 44 45 45 46 46 46 46 47 47 47 47 47 47 46 46 45 45 44 43 43 42 41 40 40 39 39 38 38 37 36 35 34 33 32 31 31 30 29 28 27
19 19 19 19 18 18 19 19 19 19 19 19 20 20 20 20 21 21 21 22 22 22 23 24 24 25 27 28 30 31 32 33 35 36 36 37 38 38 38 39 39 40 40 40 41 41 42 42 43 44 45 45 45 46 47 47 47 46 46 45 45 44 43 42 41 40 39 39 38 38 38 37 37 36 36 35 34 33 32 31 30 30 29 28 28 27
19 19 19 19 19 19 19 19 19 19 19 20 20 20 20 21 21 21 21 21 22 22 22 22 23 24 25 26 27 28 29 30 31 32 33 33 34 34 35 35 36 37 37 38 38 38 39 40 40 41 42 42 43 44 44 45 45 44 44 43 42 41 40 39 39 38 37 36 36 36 36 35 35 35 34 33 32 31 30 30 29 29 29 28 28 27
19 20 20 20 20 20 20 20 20 20 20 20 20 21 21 21 21 21 22 22 22 22 22 22 23 23 24 25 25 26 27 28 29 30 30 31 31 32 32 32 33 33 34 34 35 35 36 37 38 38 39 39 40 41 41 42 41 41 40 39 38 37 36 36 36 35 34 34 34 34 34 34 34 34 33 32 31 30 29 29 28 28 28 28 28 27
20 20 20 20 20 20 20 20 20 20 20 20 21 21 21 22 22 22 22 22 22 22 22 23 23 23 24 24 25 25 26 26 27 28 28 29 30 30 30 30 30 31 31 31 31 32 33 33 34 36 37 37 37 37 38 38 38 37 36 35 34 34 33 33 33 33 33 32 32 33 33 33 33 33 32 31 30 29 28 28 28 28 28 28 28 27
20 20 20 20 21 21 21 20 20 20 21 21 21 21 22 22 22 23 23 23 23 23 23 23 23 23 24 24 24 25 25 25 26 26 27 28 28 29 29 29 29 29 29 29 29 30 30 31 32 33 34 35 35 35 34 34 34 34 33 33 32 32 31 31 31 31 31 31 31 32 32 32 32 31 31 30 29 28 28 27 27 28 28 29 28 27
Wind_Direction
221 221 221 221 221 222 223 222 222 222 223 224 225 225 226 227 228 229 230 231 233 234 236 238 241 243 245 246 247 247 247 245 245 246 247 248 247 247 246 246 245 245 244 244 244 245 246 247 249 251 252 253 253 253 253 253 254 255 257 258 259 259 259 259 259 258 258 257 256 256 255 255 255 254 254 254 254 254 254 254 254 254 254 254 253 253
219 219 219 220 220 221 223 223 223 223 224 225 225 225 226 227 227 228 228 229 230 231 232 234 236 238 240 242 244 245 246 245 245 244 243 243 243 243 243 243 243 244 244 244 245 246 247 249 250 251 253 253 253 254 254 254 255 256 257 258 259 259 259 259 258 257 256 256 255 254 254 254 253 253 253 253 253 253 253 253 253 253 253 253 253 253
218 218 219 219 219 220 222 223 223 224 225 226 226 226 227 227 228 229 229 229 230 231 232 233 234 236 237 239 241 242 244 244 244 243 242 242 242 242 242 243 244 244 245 246 247 248 249 250 251 252 252 253 253 253 254 254 255 256 257 257 258 258 258 257 256 256 255 254 254 253 253 253 253 253 253 253 253 253 253 253 253 253 253 253 253 253
219 218 219 219 219 219 221 222 223 224 225 226 227 227 228 229 229 230 230 230 231 232 233 233 234 235 236 237 239 240 241 242 243 243 244 244 244 244 245 245 246 247 247 248 248 249 249 250 251 251 251 252 252 253 253 254 254 255 256 256 256 256 256 256 255 254 254 253 253 253 252 252 252 252 252 253 253 253 253 253 253 253 253 254 254 254
220 220 219 219 219 219 220 221 222 223 225 226 227 228 228 229 230 230 230 230 231 232 233 233 234 234 235 236 237 238 239 240 241 242 243 244 245 246 246 247 247 248 248 248 248 249 249 249 249 250 250 250 251 251 252 252 253 253 254 254 254 254 254 254 253 253 253 253 253 252 252 252 252 252 253 253 253 253 253 254 254 254 254 254 254 255
221 221 221 220 220 220 221 221 222 223 224 226 226 227 228 229 229 229 229 230 230 231 232 233 233 234 235 236 236 237 238 239 240 241 242 243 244 245 245 246 247 247 247 247 247 247 247 247 248 248 248 249 249 250 250 251 251 251 252 252 252 252 252 252 252 252 252 252 252 252 252 252 252 253 253 253 254 254 254 255 255 255 255 255 255 255
223 222 222 221 221 221 220 221 222 222 223 224 226 227 227 228 228 228 229 229 230 231 232 233 233 234 234 235 236 236 237 238 239 240 241 242 242 243 244 245 245 246 246 246 246 246 246 246 246 246 247 247 248 248 249 249 250 250 250 250 250 251 250 251 251 251 251 251 251 252 252 252 252 253 253 253 254 255 255 255 256 256 256 256 256 256
229 226 224 222 221 220 220 220 221 222 222 223 224 225 226 227 228 228 228 229 230 231 232 233 234 234 235 235 236 236 236 237 238 239 240 241 242 243 244 244 245 245 245 245 245 245 245 245 245 245 245 245 246 247 247 248 248 249 249 249 249 249 249 249 249 250 250 250 250 251 251 252 252 252 253 253 254 255 255 256 256 257 257 257 257 257
234 231 228 225 222 220 219 219 220 221 221 222 223 224 225 227 228 228 228 229 229 230 232 233 234 234 235 235 235 236 237 237 238 239 241 242 243 243 244 244 244 245 245 245 245 245 245 244 244 244 243 243 244 244 245 246 246 247 248 248 248 248 248 249 249 249 249 249 250 250 251 251 252 252 253 253 254 255 255 256 257 257 257 257 257 257
236 236 233 230 227 223 220 218 218 219 220 221 222 223 224 226 228 229 229 228 228 229 231 233 234 234 234 235 236 236 237 238 238 239 241 242 243 243 244 244 244 245 246 246 246 246 245 244 243 243 242 242 241 242 242 243 244 245 246 247 247 247 248 248 248 249 249 249 250 250 251 251 251 252 252 253 254 255 255 256 256 257 257 257 257 257
237 238 237 235 232 229 224 221 218 217 217 219 220 222 223 225 227 228 229 229 230 230 231 233 234 235 235 236 237 238 237 238 239 240 240 241 242 242 243 244 244 246 247 247 247 247 246 244 243 242 241 240 240 240 241 241 242 244 244 245 246 247 247 248 248 249 249 249 250 250 250 251 252 252 253 254 254 255 255 256 256 257 257 257 257 257
238 238 238 238 236 234 230 226 221 217 216 216 217 218 220 222 224 226 227 229 231 232 234 235 236 237 239 240 241 241 240 239 239 239 239 240 241 241 242 243 245 247 249 249 249 248 247 245 244 243 241 240 240 240 241 242 243 244 244 245 246 247 247 248 248 249 249 249 250 250 251 252 253 253 254 255 255 256 256 256 257 257 257 257 257 257
238 238 239 239 238 237 234 230 226 222 218 217 217 216 217 218 219 220 222 223 226 231 235 237 239 240 242 243 244 244 243 242 240 239 238 238 239 240 241 243 246 249 250 251 250 249 247 246 244 243 242 241 241 241 242 244 245 245 246 247 247 247 248 248 249 249 249 250 250 251 252 253 254 255 255 256 256 257 257 257 257 258 258 258 258 258
238 238 238 239 238 238 236 234 231 227 223 220 219 219 219 218 218 218 218 217 219 224 232 237 241 242 242 241 242 244 245 245 243 240 237 238 238 239 240 243 247 250 251 250 249 247 246 244 243 242 241 241 241 243 244 245 246 247 248 249 249 249 250 250 250 250 251 251 252 252 253 254 255 255 256 257 257 257 258 258 258 259 259 259 259 260
237 237 238 238 238 238 237 236 234 231 227 224 222 221 221 220 219 218 218 217 217 220 226 233 238 240 238 234 234 238 243 246 245 242 239 237 236 236 239 243 247 249 249 248 246 244 242 241 240 240 240 240 241 242 243 245 246 248 249 250 251 252 252 252 252 252 253 253 253 253 254 254 255 256 256 257 257 258 258 259 259 259 260 260 260 260
235 236 237 237 237 237 237 237 235 233 231 227 224 222 221 221 221 221 220 220 219 220 223 227 231 233 233 229 227 231 239 244 245 242 241 238 236 235 237 241 245 246 246 244 242 240 238 237 237 237 238 238 239 240 241 242 245 247 249 251 252 253 254 254 254 254 254 254 254 254 255 255 255 256 257 258 258 258 259 259 260 260 260 261 261 261
234 234 235 236 235 235 236 236 236 234 232 229 226 224 222 222 222 222 222 222 223 223 224 223 224 226 228 225 224 227 236 241 242 241 240 239 237 236 238 241 244 245 243 240 238 236 235 234 235 236 236 236 237 237 239 241 244 247 250 252 253 254 255 255 255 255 255 255 255 255 255 255 256 257 258 258 259 260 260 260 260 260 261 261 261 262
232 232 233 234 233 233 234 234 234 233 232 230 228 226 224 223 223 223 223 223 224 225 226 222 220 222 227 225 225 228 235 239 240 238 237 237 238 238 239 241 243 244 242 238 236 234 233 234 235 236 236 235 235 235 237 240 244 248 251 254 256 256 257 256 256 255 255 254 254 254 255 256 256 258 259 259 260 261 261 262 262 261 261 261 262 262
232 232 232 232 232 232 232 232 231 231 230 229 228 227 226 226 225 224 224 224 224 225 225 223 219 219 224 228 230 232 235 238 239 238 237 237 238 239 240 242 243 243 240 237 234 233 233 234 236 236 235 234 234 234 237 240 245 250 254 257 259 260 259 258 257 255 255 254 254 254 255 255 256 258 259 260 261 262 263 263 263 263 263 262 262 262
232 233 233 232 231 230 230 229 229 229 228 228 227 227 227 227 226 225 225 225 225 225 225 224 221 219 220 224 229 232 235 237 240 240 240 239 240 242 243 244 244 243 240 236 233 232 233 235 237 237 235 234 233 235 238 242 247 253 258 262 264 264 263 261 259 257 255 254 254 254 255 255 256 258 259 260 262 263 264 265 265 264 264 264 263 263
229 233 234 233 231 230 229 228 228 228 228 228 227 227 227 227 227 226 226 226 226 226 226 224 223 221 220 222 225 228 231 234 238 240 240 240 241 242 242 243 243 242 239 236 233 232 234 236 237 236 234 233 233 236 240 245 251 257 262 266 267 267 266 264 261 259 257 256 256 255 256 257 257 259 260 261 263 264 265 266 266 266 265 264 264 264
222 228 232 233 232 230 229 228 227 228 228 228 228 228 228 228 227 227 227 226 226 226 226 226 225 224 223 224 225 226 227 229 233 236 236 237 236 236 235 236 237 238 237 235 232 232 233 235 235 233 231 231 234 239 245 251 257 262 267 269 270 270 268 266 263 261 260 259 258 258 258 259 259 260 262 263 265 266 267 268 268 267 266 265 265 265
217 220 226 229 230 230 229 228 227 227 227 227 227 228 228 227 227 228 227 227 227 227 228 228 227 227 227 227 228 228 227 229 231 233 235 236 236 234 231 229 228 230 231 232 231 231 232 232 230 229 228 231 237 246 253 259 263 267 270 272 272 271 269 266 264 263 262 261 261 261 261 261 262 263 264 265 267 268 270 270 270 269 267 266 266 265
217 217 219 222 226 227 228 227 227 226 226 226 226 226 226 226 226 227 227 227 228 228 229 230 230 229 229 229 229 229 230 230 232 234 236 238 239 239 235 229 224 222 223 225 227 228 229 229 228 227 229 235 245 254 261 265 267 269 271 272 273 271 269 266 265 264 264 264 264 263 264 264 264 265 266 268 269 271 272 272 272 270 269 267 267 266
218 216 215 217 219 223 225 226 226 226 226 226 226 226 225 225 225 225 226 227 228 229 230 230 230 230 230 230 230 230 231 232 233 235 237 238 240 242 239 232 224 219 218 219 222 224 227 229 229 231 235 243 252 259 264 267 268 270 271 272 271 270 267 265 264 264 265 265 266 266 266 267 267 268 269 270 272 274 275 274 273 271 270 269 268 267
220 217 215 214 215 217 221 223 225 226 226 227 227 227 226 225 225 225 225 226 227 228 229 230 230 231 230 230 230 231 232 233 234 235 237 237 240 243 241 234 227 223 223 224 226 228 231 234 236 239 244 250 255 260 264 266 268 269 270 270 269 267 265 263 262 263 265 266 267 268 269 270 270 271 272 273 275 277 277 276 274 272 271 270 269 267
220 218 216 214 213 213 216 219 222 224 225 226 228 228 228 227 226 225 225 225 226 227 228 229 229 229 229 230 230 232 233 234 234 235 235 236 239 242 242 237 232 231 234 237 239 240 242 243 245 247 250 254 257 260 262 264 265 266 267 267 266 265 263 261 262 263 266 267 269 270 271 272 273 274 275 277 278 279 279 277 275 273 271 270 269 268
222 220 218 216 214 212 213 215 218 220 222 224 226 227 228 228 228 228 227 226 226 226 226 227 226 225 225 226 228 231 233 235 235 234 233 233 235 239 241 239 236 237 240 244 247 248 248 249 251 252 254 256 258 259 260 261 262 263 263 264 263 262 261 261 263 265 268 269 271 272 273 274 275 276 277 278 279 280 279 278 276 273 272 271 269 267
223 222 221 219 217 215 213 214 215 217 219 221 222 224 225 226 227 228 229 228 228 226 226 225 224 222 221 224 226 229 232 234 234 233 232 231 232 235 237 238 238 239 242 246 249 251 253 253 253 254 255 256 257 257 256 256 257 258 259 259 259 259 259 261 264 267 269 271 272 273 274 275 276 277 278 279 280 280 279 277 275 273 272 271 269 266
224 224 223 222 220 219 217 216 216 216 217 218 219 220 221 222 223 225 227 229 229 229 228 226 223 221 220 224 228 231 232 233 233 233 231 231 231 232 235 237 239 241 244 246 249 252 253 254 254 253 253 253 253 252 251 252 253 254 255 256 256 258 260 263 266 269 270 272 273 274 275 275 276 277 278 279 280 280 279 277 275 273 272 271 268 265
225 224 224 223 223 222 221 220 219 218 218 218 218 218 218 218 219 220 222 225 227 229 229 228 226 223 221 224 228 233 234 234 233 232 231 231 231 232 234 237 240 242 245 247 248 249 250 251 251 250 249 248 247 247 248 249 251 252 254 255 257 260 263 265 268 269 270 271 272 273 274 275 276 277 279 279 279 279 277 276 274 273 272 270 267 263
226 226 225 224 224 224 223 223 223 222 221 221 220 219 219 218 217 217 218 220 223 225 227 228 227 226 225 225 228 231 233 234 234 233 232 232 232 232 233 236 239 242 243 245 247 247 248 247 247 246 245 244 244 245 246 249 251 252 254 257 260 263 265 267 268 269 270 270 271 272 274 275 276 277 278 279 278 278 276 275 274 273 272 270 266 262
228 227 227 226 225 225 225 225 225 225 224 224 223 223 222 221 220 219 219 219 221 222 224 225 226 226 226 227 227 229 230 232 232 233 232 232 232 233 233 235 237 239 241 242 243 244 245 245 245 245 244 244 244 245 247 249 251 254 257 259 261 263 264 266 266 267 268 269 270 271 273 274 275 277 277 277 277 276 275 274 273 272 271 269 265 260
230 229 229 228 228 227 227 227 226 227 226 226 226 225 225 224 224 223 222 222 222 223 224 225 226 226 227 227 227 228 228 229 230 230 231 231 232 233 233 235 236 238 240 241 242 243 244 244 245 245 245 245 246 247 249 251 253 255 258 260 260 261 262 264 265 265 267 268 269 271 272 273 275 276 276 276 275 274 273 273 272 272 271 268 264 259
231 231 230 230 230 230 229 229 229 228 228 228 228 228 227 227 227 226 225 225 225 225 226 226 227 228 229 229 229 229 229 230 230 231 231 231 232 233 234 236 237 239 241 243 245 246 247 247 247 247 248 248 249 250 251 252 255 257 259 260 259 259 260 262 263 264 265 267 268 270 271 273 274 275 275 274 273 272 272 272 272 271 270 267 262 258
233 232 231 231 231 231 231 232 231 231 231 230 230 230 229 229 229 229 228 227 227 227 227 228 228 229 230 231 231 231 232 232 232 233 233 234 235 236 237 239 240 242 244 246 248 249 250 251 250 250 251 252 253 254 254 255 256 257 258 259 259 259 260 261 262 263 265 267 268 270 271 272 273 273 273 272 271 271 271 271 271 271 269 266 261 257
234 234 233 233 232 232 233 233 233 233 233 233 232 232 232 232 231 231 231 230 230 229 229 229 229 229 230 231 232 232 232 233 234 235 236 237 237 238 240 241 243 245 246 247 248 250 251 252 253 254 254 254 255 255 256 256 256 256 256 257 258 258 259 260 261 262 264 266 268 269 270 271 272 272 272 271 270 270 271 271 271 269 267 264 261 257
235 235 235 235 235 235 234 235 235 235 235 235 235 235 234 234 234 234 234 233 233 233 232 231 230 230 230 230 231 231 232 233 233 234 235 236 237 238 239 240 242 244 245 245 247 248 249 249 250 252 253 253 254 255 256 255 254 254 254 256 257 258 259 260 261 262 264 266 267 268 269 270 271 271 270 269 269 270 271 271 270 268 265 262 259 256
235 236 236 237 237 237 237 237 237 237 238 238 237 237 237 237 237 237 237 237 237 236 236 235 234 232 231 230 230 230 231 231 232 233 233 234 235 236 236 237 239 240 242 242 243 244 244 245 245 246 246 248 249 251 252 252 252 252 253 254 256 257 259 260 261 262 264 265 266 267 268 269 269 269 269 269 269 270 271 270 268 266 263 260 257 254
235 236 237 237 238 238 239 239 239 239 239 239 239 239 239 239 239 239 239 240 240 240 239 239 237 236 234 232 231 230 230 230 231 231 232 232 233 234 235 236 237 238 240 240 241 241 241 242 242 243 243 244 245 246 247 248 249 250 252 253 255 257 259 260 261 262 264 265 266 267 267 268 268 268 268 268 269 269 269 268 266 263 260 258 256 253
234 235 236 237 237 238 238 239 239 239 239 240 240 240 241 241 241 241 242 242 242 242 242 241 240 239 237 236 234 233 232 231 231 232 232 232 233 234 235 237 238 239 240 241 241 241 241 241 241 242 242 243 244 245 247 248 249 250 252 253 255 257 259 260 261 263 264 265 266 266 267 267 267 267 267 267 268 268 267 266 263 261 258 256 254 251
233 234 235 235 236 237 237 237 238 238 239 239 240 240 241 241 242 242 242 243 243 243 242 242 241 240 239 238 237 236 235 234 234 234 234 235 236 237 238 239 240 241 242 242 242 242 242 242 242 242 243 243 244 246 247 248 250 251 253 254 255 257 259 260 262 263 264 265 266 266 267 267 267 267 266 267 267 266 265 263 260 258 256 254 252 250
234 234 234 234 234 235 235 236 236 237 238 238 238 238 239 240 240 241 242 242 242 242 242 242 241 240 240 239 238 238 237 237 237 237 237 238 238 239 240 241 242 243 243 243 243 243 243 243 243 243 243 244 245 246 248 249 250 252 253 254 256 257 259 260 261 262 264 265 266 266 267 266 266 265 265 265 265 264 262 260 257 255 254 252 250 249
236 235 234 234 234 234 234 235 235 235 236 236 236 236 237 238 238 239 239 240 240 241 241 241 241 240 239 239 239 239 238 238 239 239 239 240 241 241 242 243 243 244 244 244 244 243 244 244 244 244 245 245 246 246 248 249 251 252 253 255 256 257 259 260 261 262 264 265 266 266 266 265 264 264 263 263 262 261 259 257 255 253 251 250 249 248
238 237 236 236 235 235 235 234 234 234 234 234 234 235 235 236 236 237 237 238 238 239 239 240 240 240 239 239 239 238 238 239 239 239 240 241 241 242 242 243 243 244 244 244 244 244 244 244 244 245 245 246 246 247 248 250 251 252 254 255 256 257 258 259 260 262 263 264 264 264 264 263 262 261 261 260 259 257 256 254 252 251 250 249 248 248
241 240 239 238 237 236 235 235 235 235 235 235 235 235 235 235 235 236 236 236 236 237 238 238 239 238 238 238 238 238 238 238 238 238 239 239 240 241 241 242 242 243 243 243 244 244 244 244 245 245 246 246 247 248 249 250 252 253 254 255 256 257 258 259 260 261 262 263 262 262 261 260 259 259 258 257 255 254 252 251 250 249 249 248 248 248
243 242 241 240 239 238 237 237 236 236 236 236 236 236 236 236 236 236 236 236 236 236 236 237 237 237 237 237 237 237 237 237 237 237 237 238 238 238 239 240 240 241 241 242 242 243 243 244 244 245 246 247 247 248 249 250 251 252 253 254 255 256 257 258 259 260 260 260 259 259 258 257 256 256 255 253 252 251 250 249 249 248 248 248 248 248
244 244 243 242 241 240 239 239 238 238 238 238 238 237 237 237 237 236 236 236 236 236 237 237 237 237 237 237 237 237 236 236 236 236 236 236 236 237 237 238 238 239 239 240 241 241 242 243 243 244 245 246 247 248 249 250 250 251 252 252 253 254 256 257 258 258 258 257 256 255 255 254 253 252 251 250 249 248 248 248 248 248 249 249 249 250
245 245 244 244 243 242 241 241 240 240 240 240 240 239 239 239 238 238 238 238 237 237 237 237 237 237 237 237 237 237 236 236 236 235 235 235 236 236 236 236 237 237 238 238 239 239 240 241 242 243 244 245 245 246 247 248 248 249 249 250 251 252 254 255 256 256 255 254 253 252 252 251 250 249 249 248 247 247 247 248 249 249 250 250 250 251
247 246 246 245 245 244 243 242 241 241 241 241 241 241 241 240 240 239 239 239 239 239 238 238 238 239 239 239 239 238 238 237 237 236 236 236 236 236 236 236 236 236 236 237 237 238 238 239 240 242 243 243 244 244 245 246 246 246 246 247 248 250 251 252 253 253 252 251 251 250 249 249 248 248 247 246 246 245 246 247 249 251 251 251 251 252
247 247 247 246 246 245 244 243 243 242 242 242 242 242 242 242 242 241 241 240 240 240 240 240 239 240 240 240 241 241 240 240 239 238 237 237 236 236 236 236 236 236 236 236 236 237 237 238 239 240 241 242 242 243 243 243 243 244 244 245 246 247 249 250 250 250 250 249 249 248 248 247 247 247 246 246 245 245 245 246 249 251 252 253 253 253
Height
2987 2988 2990 2991 2993 2994 2995 2997 2999 3000 3001 3003 3004 3006 3008 3009 3011 3012 3014 3015 3017 3018 3019 3021 3022 3024 3025 3026 3027 3029 3030 3032 3034 3035 3037 3039 3040 3041 3042 3043 3044 3046 3047 3049 3050 3051 3052 3054 3054 3056 3057 3058 3059 3060 3061 3062 3064 3065 3066 3067 3068 3069 3070 3071 3072 3073 3073 3074 3075 3075 3076 3077 3078 3079 3079 3080 3081 3081 3082 3083 3084 3084 3085 3086 3086 3087
2985 2986 2988 2989 2991 2992 2993 2995 2996 2998 2999 3001 3002 3004 3006 3007 3009 3010 3012 3013 3015 3016 3018 3019 3020 3021 3023 3024 3025 3027 3028 3029 3031 3033 3034 3036 3037 3039 3040 3041 3042 3044 3045 3046 3047 3048 3049 3051 3052 3053 3054 3055 3056 3057 3059 3059 3060 3062 3063 3064 3065 3066 3067 3068 3069 3069 3070 3071 3072 3072 3073 3074 3074 3075 3076 3077 3078 3079 3079 3080 3081 3082 3082 3083 3084 3084
2983 2984 2986 2987 2989 2990 2991 2993 2994 2996 2997 2999 3000 3002 3004 3005 3006 3008 3009 3011 3013 3014 3015 3016 3018 3019 3020 3022 3023 3024 3026 3027 3029 3030 3032 3033 3034 3036 3037 3038 3039 3041 3042 3043 3044 3046 3047 3048 3049 3050 3051 3053 3054 3054 3056 3057 3058 3059 3059 3061 3062 3063 3064 3064 3065 3066 3067 3068 3068 3069 3070 3071 3072 3073 3073 3074 3075 3076 3076 3077 3078 3079 3079 3080 3081 3082
2982 2983 2984 2985 2987 2988 2989 2991 2993 2994 2995 2997 2998 3000 3001 3003 3004 3006 3007 3009 3010 3011 3012 3014 3015 3016 3018 3019 3021 3022 3024 3025 3027 3028 3029 3030 3031 3033 3034 3035 3037 3038 3039 3040 3042 3043 3044 3046 3047 3048 3049 3050 3051 3052 3053 3054 3055 3056 3057 3058 3059 3059 3060 3061 3062 3063 3064 3064 3065 3066 3067 3068 3069 3069 3070 3071 3072 3073 3074 3074 3075 3076 3077 3077 3078 3079
2980 2981 2982 2984 2985 2987 2988 2989 2991 2992 2993 2994 2996 2998 2999 3000 3002 3004 3005 3006 3008 3009 3010 3011 3013 3014 3015 3017 3019 3020 3021 3023 3024 3025 3027 3028 3029 3030 3032 3033 3034 3035 3037 3038 3039 3040 3042 3043 3044 3045 3046 3047 3048 3049 3050 3051 3052 3053 3054 3055 3056 3057 3057 3058 3059 3060 3061 3061 3062 3063 3064 3065 3066 3067 3068 3068 3069 3069 3070 3071 3072 3073 3074 3074 3075 3076
2979 2979 2980 2982 2984 2984 2986 2987 2989 2990 2991 2993 2994 2995 2997 2998 3000 3001 3003 3004 3005 3006 3008 3009 3010 3012 3013 3015 3016 3018 3019 3020 3022 3023 3024 3026 3027 3028 3029 3030 3032 3033 3034 3036 3037 3038 3039 3040 3042 3043 3044 3044 3045 3047 3048 3049 3049 3050 3051 3052 3053 3054 3054 3055 3056 3057 3058 3059 3059 3060 3061 3062 3063 3064 3064 3065 3066 3067 3067 3068 3069 3070 3070 3071 3072 3073
2977 2978 2979 2980 2981 2982 2984 2985 2987 2988 2989 2991 2992 2993 2995 2996 2997 2999 3000 3002 3003 3004 3006 3007 3009 3010 3011 3013 3014 3015 3017 3018 3019 3021 3022 3024 3025 3026 3027 3028 3029 3031 3032 3033 3034 3036 3037 3038 3039 3040 3041 3042 3043 3044 3045 3046 3047 3048 3049 3049 3050 3051 3052 3053 3053 3054 3055 3056 3057 3057 3058 3059 3060 3061 3062 3063 3063 3064 3064 3065 3066 3067 3068 3068 3069 3069
2974 2976 2977 2978 2979 2980 2982 2983 2985 2986 2987 2989 2990 2992 2993 2994 2995 2996 2998 3000 3002 3003 3004 3005 3006 3008 3009 3010 3012 3013 3014 3016 3017 3019 3020 3021 3022 3024 3025 3026 3027 3029 3030 3031 3032 3033 3034 3035 3036 3038 3039 3039 3040 3042 3043 3044 3044 3045 3046 3047 3048 3049 3049 3050 3051 3052 3052 3053 3054 3055 3055 3056 3057 3058 3059 3060 3060 3061 3062 3063 3063 3064 3064 3065 3066 3066
2972 2973 2974 2975 2977 2978 2979 2981 2982 2984 2985 2987 2988 2989 2991 2992 2993 2994 2996 2998 3000 3001 3002 3003 3004 3005 3007 3008 3009 3011 3012 3014 3015 3016 3017 3019 3020 3021 3022 3024 3025 3026 3027 3029 3030 3031 3032 3033 3034 3035 3036 3037 3038 3039 3040 3041 3042 3043 3044 3044 3045 3046 3047 3048 3048 3049 3050 3050 3051 3052 3053 3054 3054 3055 3056 3057 3058 3059 3059 3060 3060 3061 3061 3062 3063 3063
2969 2970 2972 2973 2974 2976 2977 2979 2980 2982 2983 2985 2986 2987 2989 2989 2991 2992 2994 2996 2997 2999 2999 3001 3002 3003 3004 3006 3007 3009 3010 3011 3013 3014 3015 3016 3018 3019 3020 3021 3022 3024 3025 3026 3028 3029 3030 3031 3032 3033 3034 3035 3036 3037 3038 3039 3040 3041 3041 3042 3043 3044 3044 3045 3046 3047 3047 3048 3049 3049 3050 3051 3052 3053 3053 3054 3055 3056 3056 3057 3057 3058 3058 3059 3059 3060
2966 2968 2969 2971 2972 2974 2975 2976 2978 2979 2981 2982 2984 2985 2986 2988 2989 2990 2991 2993 2994 2996 2998 2999 2999 3000 3002 3003 3005 3006 3008 3009 3011 3012 3013 3014 3015 3016 3018 3019 3020 3021 3023 3024 3025 3026 3028 3029 3029 3031 3032 3033 3034 3034 3035 3036 3037 3038 3039 3040 3041 3041 3042 3043 3044 3044 3045 3046 3046 3047 3048 3048 3049 3050 3051 3051 3052 3053 3053 3054 3054 3055 3055 3056 3056 3057
2964 2965 2967 2968 2970 2971 2973 2974 2976 2977 2979 2980 2981 2983 2984 2985 2987 2988 2990 2991 2993 2994 2995 2996 2997 2998 2999 3001 3002 3004 3006 3008 3009 3010 3011 3012 3013 3014 3015 3017 3018 3019 3020 3022 3023 3024 3025 3026 3027 3028 3029 3030 3031 3032 3033 3034 3035 3036 3037 3038 3038 3039 3040 3040 3041 3042 3043 3043 3044 3044 3045 3046 3047 3047 3048 3049 3049 3049 3050 3051 3051 3052 3052 3053 3053 3054
2961 2963 2964 2966 2967 2969 2970 2972 2974 2975 2977 2978 2979 2980 2981 2983 2985 2987 2989 2990 2992 2993 2993 2994 2995 2996 2997 2999 3000 3002 3004 3006 3007 3008 3009 3010 3011 3012 3014 3015 3016 3017 3018 3019 3021 3022 3023 3024 3025 3026 3027 3028 3029 3030 3031 3032 3033 3034 3034 3035 3036 3037 3037 3038 3039 3039 3040 3041 3042 3042 3043 3044 3044 3044 3045 3046 3046 3047 3047 3048 3048 3049 3049 3050 3050 3051
2959 2960 2962 2963 2964 2965 2967 2969 2971 2972 2974 2975 2976 2978 2979 2981 2984 2985 2986 2988 2990 2992 2992 2992 2993 2994 2995 2997 2998 2999 3001 3004 3005 3006 3008 3008 3009 3010 3011 3013 3014 3015 3016 3017 3018 3019 3020 3022 3023 3024 3025 3026 3027 3028 3029 3029 3030 3031 3032 3033 3033 3034 3035 3036 3036 3037 3038 3039 3039 3040 3040 3041 3041 3042 3042 3043 3043 3044 3044 3044 3045 3045 3046 3047 3047 3048
2956 2957 2959 2960 2961 2963 2964 2966 2968 2969 2971 2973 2974 2976 2978 2980 2981 2982 2984 2985 2987 2989 2990 2991 2991 2992 2994 2995 2996 2998 2999 3001 3002 3004 3004 3005 3006 3008 3009 3011 3012 3013 3014 3015 3016 3017 3018 3019 3020 3021 3022 3024 3024 3025 3026 3027 3028 3029 3029 3030 3031 3032 3032 3033 3034 3035 3036 3036 3037 3038 3038 3039 3039 3039 3039 3040 3040 3041 3041 3042 3042 3043 3043 3044 3044 3044
2953 2954 2956 2957 2958 2960 2961 2963 2965 2966 2968 2970 2972 2974 2975 2977 2978 2979 2981 2983 2984 2986 2988 2989 2990 2992 2993 2994 2995 2996 2997 2999 2999 3000 3002 3003 3004 3005 3007 3009 3009 3010 3012 3013 3014 3014 3015 3017 3018 3019 3020 3021 3022 3023 3024 3025 3026 3027 3027 3028 3029 3029 3030 3031 3032 3033 3033 3034 3034 3035 3035 3036 3036 3037 3037 3037 3038 3038 3039 3039 3039 3039 3040 3040 3041 3041
2950 2952 2953 2954 2955 2957 2959 2960 2962 2964 2965 2967 2969 2971 2972 2974 2975 2977 2979 2980 2981 2983 2984 2985 2988 2990 2991 2992 2993 2994 2995 2996 2997 2998 3000 3001 3002 3003 3005 3006 3007 3008 3010 3011 3012 3012 3013 3014 3015 3016 3018 3019 3020 3021 3022 3023 3024 3024 3025 3026 3026 3027 3028 3029 3029 3030 3031 3032 3032 3033 3033 3034 3034 3034 3034 3035 3035 3035 3036 3036 3036 3037 3037 3038 3038 3039
2948 2949 2950 2951 2953 2954 2956 2958 2959 2961 2963 2964 2966 2968 2969 2971 2972 2974 2975 2977 2978 2980 2981 2982 2984 2986 2989 2990 2990 2991 2993 2994 2995 2996 2998 2999 3000 3001 3002 3004 3005 3006 3008 3009 3009 3010 3011 3012 3013 3014 3015 3016 3017 3018 3019 3020 3021 3022 3023 3024 3024 3025 3026 3027 3027 3028 3029 3029 3030 3030 3030 3031 3031 3032 3032 3032 3033 3033 3033 3034 3034 3034 3034 3035 3035 3035
2945 2946 2948 2949 2950 2952 2954 2955 2957 2958 2960 2962 2964 2965 2967 2968 2969 2971 2973 2974 2975 2977 2979 2980 2982 2983 2986 2987 2988 2989 2991 2993 2994 2994 2995 2996 2997 2999 3000 3001 3002 3003 3005 3006 3007 3007 3008 3009 3010 3011 3013 3014 3015 3016 3017 3018 3019 3019 3020 3021 3022 3023 3024 3024 3025 3025 3026 3027 3027 3028 3028 3028 3029 3029 3029 3030 3030 3030 3031 3031 3031 3031 3032 3032 3032 3033
2943 2944 2945 2946 2948 2949 2951 2953 2954 2956 2958 2959 2961 2963 2965 2966 2967 2969 2970 2971 2973 2974 2976 2978 2979 2981 2983 2985 2986 2988 2989 2991 2991 2992 2993 2994 2995 2996 2997 2999 2999 3000 3002 3003 3004 3005 3006 3007 3008 3009 3010 3011 3012 3013 3014 3015 3016 3017 3018 3019 3019 3020 3021 3022 3022 3023 3024 3024 3025 3025 3025 3026 3026 3027 3027 3027 3028 3028 3028 3028 3029 3029 3029 3029 3030 3030
2941 2942 2942 2944 2945 2947 2949 2950 2952 2954 2955 2957 2959 2961 2962 2963 2965 2966 2968 2969 2970 2972 2974 2975 2976 2978 2979 2982 2983 2985 2987 2989 2990 2990 2991 2992 2993 2994 2994 2995 2996 2997 2998 3000 3001 3002 3003 3004 3005 3006 3008 3009 3009 3010 3012 3013 3014 3014 3015 3016 3017 3018 3019 3019 3020 3021 3021 3022 3022 3023 3023 3023 3024 3024 3024 3025 3025 3025 3025 3026 3026 3026 3026 3027 3027 3027
2938 2939 2940 2941 2943 2944 2946 2947 2949 2952 2953 2955 2956 2958 2959 2961 2962 2964 2965 2966 2968 2969 2971 2972 2973 2974 2977 2979 2980 2982 2984 2986 2987 2987 2989 2991 2992 2993 2993 2994 2994 2994 2994 2996 2998 2999 3000 3001 3003 3004 3005 3006 3007 3008 3009 3010 3011 3012 3012 3014 3014 3015 3016 3017 3018 3018 3019 3019 3019 3020 3020 3021 3021 3021 3022 3022 3022 3023 3023 3023 3023 3023 3024 3024 3024 3024
2934 2936 2937 2939 2940 2941 2943 2945 2947 2949 2951 2952 2953 2954 2956 2958 2959 2961 2962 2964 2965 2966 2967 2969 2970 2973 2975 2976 2978 2979 2981 2982 2983 2984 2985 2987 2989 2990 2992 2993 2993 2992 2992 2992 2994 2996 2998 2999 3000 3001 3003 3004 3004 3005 3006 3007 3008 3009 3009 3011 3012 3013 3014 3014 3015 3015 3016 3016 3017 3017 3018 3018 3018 3019 3019 3019 3019 3020 3020 3020 3020 3020 3021 3021 3021 3022
2931 2933 2935 2936 2938 2939 2941 2943 2944 2946 2948 2949 2950 2952 2953 2955 2956 2958 2959 2961 2962 2964 2965 2967 2969 2971 2972 2974 2975 2977 2978 2979 2980 2981 2982 2983 2985 2987 2989 2991 2991 2991 2990 2991 2992 2994 2996 2997 2998 2999 3000 3001 3002 3003 3004 3004 3005 3006 3007 3008 3009 3010 3011 3012 3012 3013 3013 3013 3014 3014 3015 3015 3016 3016 3016 3017 3017 3017 3017 3017 3017 3018 3018 3018 3019 3019
2930 2931 2933 2934 2936 2937 2939 2940 2942 2943 2945 2946 2948 2949 2950 2952 2953 2954 2956 2958 2959 2961 2963 2964 2966 2968 2969 2971 2973 2974 2976 2977 2978 2979 2979 2981 2983 2985 2986 2988 2989 2989 2989 2990 2992 2993 2994 2995 2997 2998 2999 2999 2999 3000 3001 3002 3003 3004 3004 3005 3007 3008 3009 3009 3009 3010 3010 3010 3011 3011 3012 3012 3013 3013 3014 3014 3014 3014 3014 3014 3014 3014 3015 3015 3016 3016
2928 2929 2931 2932 2934 2935 2937 2938 2939 2940 2942 2944 2945 2946 2948 2949 2950 2952 2954 2955 2957 2958 2960 2962 2963 2965 2966 2969 2971 2972 2973 2974 2975 2976 2977 2979 2980 2982 2983 2985 2986 2986 2987 2988 2989 2990 2992 2993 2994 2995 2996 2996 2997 2998 2999 2999 3000 3001 3002 3003 3004 3005 3006 3006 3007 3007 3007 3008 3008 3008 3009 3009 3010 3010 3010 3011 3011 3011 3011 3011 3011 3012 3012 3013 3013 3013
2925 2927 2928 2930 2931 2933 2934 2935 2937 2938 2939 2941 2942 2944 2945 2947 2948 2949 2951 2952 2954 2955 2957 2959 2960 2962 2964 2967 2969 2969 2970 2972 2973 2974 2974 2976 2978 2979 2980 2982 2983 2984 2984 2984 2985 2986 2988 2989 2990 2992 2993 2993 2994 2995 2996 2997 2998 2999 2999 3000 3001 3002 3003 3004 3004 3004 3004 3005 3005 3005 3006 3006 3007 3007 3007 3008 3008 3008 3008 3008 3009 3009 3009 3009 3010 3010
2922 2924 2925 2927 2929 2930 2932 2933 2934 2936 2937 2939 2940 2941 2943 2944 2946 2947 2948 2949 2951 2953 2954 2956 2958 2960 2963 2965 2966 2967 2968 2969 2970 2971 2972 2974 2975 2977 2978 2979 2980 2981 2981 2981 2982 2983 2984 2985 2987 2988 2989 2990 2991 2992 2993 2994 2995 2996 2997 2998 2999 3000 3000 3001 3001 3002 3002 3002 3002 3002 3003 3003 3004 3004 3004 3005 3005 3005 3005 3005 3005 3006 3006 3007 3007 3007
2920 2921 2923 2925 2926 2928 2929 2931 2932 2934 2935 2937 2938 2939 2940 2942 2943 2944 2945 2947 2949 2950 2952 2953 2955 2958 2960 2963 2964 2965 2966 2966 2967 2969 2970 2972 2973 2974 2975 2976 2977 2977 2978 2978 2979 2979 2981 2982 2984 2985 2986 2987 2988 2989 2990 2991 2992 2993 2994 2995 2996 2997 2998 2998 2999 2999 2999 2999 2999 2999 3000 3000 3001 3001 3001 3002 3002 3002 3002 3002 3002 3003 3004 3004 3004 3004
2918 2919 2920 2922 2924 2925 2927 2928 2930 2931 2933 2934 2936 2937 2938 2939 2940 2942 2943 2945 2946 2948 2949 2951 2953 2955 2957 2959 2961 2962 2963 2964 2965 2966 2968 2969 2970 2971 2972 2973 2974 2974 2974 2975 2976 2977 2978 2979 2981 2983 2984 2984 2986 2987 2988 2989 2989 2990 2991 2993 2994 2994 2995 2995 2996 2996 2996 2996 2996 2997 2997 2997 2998 2998 2999 2999 2999 2999 2999 2999 2999 3000 3000 3001 3001 3002
2915 2917 2918 2919 2921 2923 2924 2925 2927 2929 2930 2932 2933 2934 2936 2937 2939 2940 2941 2943 2944 2945 2947 2949 2950 2952 2954 2956 2958 2959 2959 2961 2962 2964 2965 2966 2967 2968 2969 2971 2971 2971 2972 2973 2974 2975 2976 2978 2979 2980 2981 2982 2983 2984 2985 2986 2987 2988 2989 2990 2991 2991 2992 2992 2993 2993 2993 2993 2994 2994 2994 2994 2995 2995 2995 2996 2996 2996 2996 2996 2997 2997 2998 2998 2999 2999
2913 2914 2916 2917 2919 2920 2921 2923 2924 2926 2928 2929 2931 2932 2934 2935 2936 2938 2939 2940 2942 2943 2945 2946 2948 2949 2951 2953 2955 2956 2957 2959 2960 2961 2963 2963 2964 2965 2967 2968 2969 2969 2970 2972 2973 2973 2974 2976 2977 2978 2979 2980 2980 2981 2982 2983 2984 2985 2986 2987 2988 2989 2989 2989 2989 2989 2990 2990 2991 2991 2991 2992 2992 2992 2992 2993 2993 2993 2994 2994 2994 2994 2995 2995 2996 2996
2911 2912 2914 2915 2916 2918 2919 2920 2922 2924 2925 2927 2928 2930 2931 2933 2934 2935 2937 2938 2940 2941 2943 2944 2946 2947 2949 2951 2952 2954 2955 2957 2958 2959 2960 2961 2962 2963 2964 2965 2966 2967 2969 2970 2971 2972 2973 2974 2974 2975 2976 2977 2978 2979 2980 2981 2982 2983 2984 2984 2985 2985 2986 2986 2986 2987 2987 2988 2988 2988 2988 2989 2989 2989 2989 2990 2990 2990 2991 2991 2991 2992 2992 2993 2993 2994
2909 2910 2911 2912 2914 2915 2916 2918 2919 2921 2922 2924 2926 2927 2929 2930 2932 2933 2934 2936 2937 2939 2940 2942 2943 2945 2946 2948 2949 2951 2953 2954 2955 2956 2957 2959 2959 2960 2962 2963 2964 2965 2966 2967 2968 2969 2970 2971 2972 2973 2974 2974 2975 2976 2977 2978 2979 2980 2981 2982 2982 2983 2983 2983 2984 2984 2984 2984 2985 2985 2985 2985 2986 2986 2987 2987 2987 2988 2988 2989 2989 2989 2989 2990 2990 2991
2906 2908 2909 2910 2911 2913 2914 2915 2917 2918 2920 2921 2923 2924 2926 2928 2929 2930 2932 2933 2935 2936 2938 2939 2940 2942 2943 2945 2946 2948 2949 2950 2951 2952 2954 2955 2956 2957 2959 2960 2961 2962 2963 2964 2965 2966 2967 2968 2969 2970 2971 2972 2973 2974 2975 2976 2977 2977 2978 2979 2979 2979 2980 2980 2980 2981 2981 2982 2982 2982 2982 2983 2983 2983 2984 2984 2985 2985 2985 2986 2986 2986 2987 2987 2988 2988
2904 2905 2906 2908 2909 2910 2912 2913 2914 2916 2917 2919 2920 2922 2923 2925 2926 2928 2929 2931 2932 2934 2935 2936 2937 2939 2940 2941 2943 2944 2945 2946 2947 2949 2950 2951 2952 2954 2955 2956 2957 2959 2960 2961 2962 2963 2964 2965 2966 2967 2968 2969 2969 2970 2972 2973 2974 2974 2975 2975 2976 2976 2977 2977 2977 2978 2978 2979 2979 2979 2979 2979 2980 2980 2981 2981 2982 2983 2983 2983 2984 2984 2984 2984 2985 2985
2901 2903 2904 2905 2906 2908 2909 2910 2912 2914 2915 2916 2918 2919 2920 2922 2924 2925 2926 2928 2929 2931 2932 2933 2934 2936 2937 2939 2940 2941 2942 2943 2944 2945 2946 2948 2949 2950 2952 2953 2954 2955 2956 2957 2959 2960 2961 2962 2963 2964 2965 2966 2966 2968 2969 2970 2971 2971 2972 2972 2973 2973 2973 2974 2974 2975 2975 2975 2975 2975 2976 2976 2977 2977 2978 2979 2979 2980 2980 2981 2981 2981 2981 2982 2982 2982
2899 2900 2901 2903 2904 2905 2907 2908 2909 2911 2912 2914 2915 2916 2918 2919 2921 2922 2924 2925 2926 2928 2929 2930 2932 2933 2934 2935 2937 2938 2939 2940 2941 2942 2944 2945 2946 2948 2949 2950 2951 2952 2953 2954 2955 2957 2958 2959 2960 2961 2962 2963 2964 2964 2966 2967 2967 2968 2969 2969 2969 2970 2970 2971 2971 2971 2972 2972 2972 2972 2973 2973 2974 2975 2975 2976 2977 2977 2978 2978 2978 2979 2979 2979 2979 2979
2896 2897 2899 2900 2901 2903 2904 2905 2907 2908 2909 2911 2912 2913 2915 2916 2918 2919 2920 2922 2923 2925 2926 2927 2929 2930 2931 2932 2934 2935 2936 2937 2938 2939 2940 2942 2943 2944 2946 2947 2948 2949 2950 2952 2953 2954 2955 2956 2958 2959 2959 2960 2961 2962 2963 2964 2964 2965 2965 2966 2966 2967 2967 2967 2968 2968 2968 2969 2969 2969 2969 2970 2971 2972 2973 2973 2974 2974 2975 2975 2975 2975 2976 2976 2976 2977
2894 2895 2896 2897 2899 2900 2901 2902 2904 2905 2906 2908 2909 2910 2912 2913 2914 2916 2917 2919 2920 2921 2923 2924 2925 2927 2928 2929 2931 2932 2933 2934 2935 2936 2937 2939 2940 2941 2943 2944 2945 2946 2948 2949 2950 2951 2952 2954 2954 2956 2957 2958 2959 2959 2960 2960 2961 2962 2962 2963 2963 2963 2964 2964 2964 2964 2965 2965 2966 2966 2967 2968 2969 2969 2970 2971 2971 2972 2972 2972 2973 2973 2973 2973 2974 2974
2892 2893 2894 2895 2896 2897 2899 2900 2901 2902 2903 2904 2906 2907 2909 2910 2911 2913 2914 2915 2917 2918 2919 2921 2922 2924 2925 2926 2928 2929 2930 2931 2932 2933 2934 2936 2937 2938 2939 2941 2942 2943 2944 2946 2947 2948 2949 2950 2951 2953 2954 2954 2955 2956 2957 2957 2958 2959 2959 2960 2960 2960 2960 2960 2961 2961 2962 2962 2962 2963 2964 2965 2966 2967 2967 2968 2968 2969 2969 2969 2969 2970 2970 2970 2971 2971
2890 2891 2892 2893 2894 2895 2896 2897 2899 2900 2901 2902 2903 2904 2906 2907 2908 2909 2910 2912 2913 2914 2916 2917 2919 2920 2921 2923 2924 2925 2927 2928 2929 2930 2931 2933 2934 2935 2936 2938 2939 2940 2941 2942 2944 2944 2946 2947 2948 2949 2950 2951 2952 2953 2954 2954 2955 2955 2956 2956 2957 2957 2957 2957 2958 2958 2959 2959 2959 2960 2961 2962 2963 2964 2964 2965 2965 2965 2966 2966 2967 2967 2967 2968 2968 2969
2888 2889 2890 2891 2892 2893 2894 2895 2897 2898 2899 2900 2901 2902 2903 2904 2905 2906 2907 2909 2909 2911 2912 2913 2914 2916 2917 2919 2920 2922 2923 2924 2926 2927 2928 2929 2931 2932 2933 2934 2936 2937 2938 2939 2940 2941 2943 2944 2945 2946 2947 2948 2949 2950 2950 2951 2951 2952 2952 2953 2953 2954 2954 2954 2955 2955 2956 2956 2957 2958 2959 2959 2960 2960 2961 2962 2962 2963 2963 2963 2964 2964 2965 2965 2966 2966
2887 2888 2889 2889 2890 2892 2893 2894 2895 2896 2897 2898 2899 2900 2901 2902 2903 2904 2905 2906 2907 2908 2909 2910 2911 2913 2914 2915 2917 2918 2919 2921 2922 2924 2925 2926 2927 2929 2930 2931 2932 2934 2935 2936 2937 2938 2939 2940 2942 2943 2944 2945 2946 2947 2947 2948 2948 2948 2949 2949 2950 2951 2952 2952 2952 2953 2953 2954 2954 2955 2955 2956 2956 2957 2958 2959 2959 2959 2960 2960 2961 2962 2962 2963 2963 2964
2885 2886 2887 2888 2889 2890 2891 2892 2893 2894 2895 2896 2897 2898 2899 2899 2900 2902 2903 2904 2904 2905 2907 2908 2909 2910 2911 2912 2914 2915 2916 2917 2919 2920 2921 2923 2924 2925 2926 2928 2929 2930 2931 2933 2934 2935 2936 2937 2939 2939 2940 2941 2942 2943 2944 2944 2945 2945 2945 2946 2947 2948 2949 2949 2950 2950 2950 2951 2951 2952 2952 2953 2953 2954 2955 2955 2956 2957 2957 2958 2959 2959 2960 2960 2961 2961
2884 2885 2886 2887 2888 2889 2889 2890 2891 2892 2893 2894 2895 2896 2897 2898 2899 2899 2900 2901 2902 2903 2904 2905 2906 2908 2909 2909 2911 2912 2913 2914 2915 2917 2918 2919 2920 2922 2923 2924 2926 2927 2928 2929 2930 2932 2933 2934 2935 2936 2937 2938 2939 2939 2940 2941 2941 2942 2943 2944 2944 2945 2946 2947 2947 2948 2948 2948 2949 2949 2949 2949 2950 2951 2952 2953 2953 2954 2955 2956 2956 2957 2957 2958 2959 2959
2882 2883 2884 2885 2886 2887 2888 2889 2889 2890 2891 2893 2894 2894 2895 2896 2897 2898 2899 2899 2900 2901 2902 2903 2904 2905 2906 2907 2908 2909 2910 2911 2912 2914 2915 2916 2917 2919 2920 2921 2922 2924 2925 2926 2927 2928 2929 2931 2932 2932 2933 2934 2935 2936 2937 2937 2938 2939 2940 2941 2942 2943 2943 2944 2944 2944 2945 2945 2945 2946 2946 2946 2947 2948 2949 2950 2951 2952 2953 2953 2954 2954 2955 2955 2956 2956
2881 2882 2882 2883 2884 2885 2886 2887 2888 2889 2890 2891 2892 2893 2894 2894 2895 2896 2897 2897 2898 2899 2900 2901 2902 2903 2904 2905 2906 2907 2908 2909 2910 2911 2912 2913 2914 2916 2917 2918 2919 2920 2922 2923 2924 2925 2926 2927 2928 2929 2930 2931 2932 2933 2933 2934 2935 2936 2937 2938 2939 2939 2940 2940 2941 2941 2942 2942 2943 2943 2943 2944 2944 2945 2946 2947 2948 2949 2950 2951 2951 2952 2952 2953 2953 2954
2879 2880 2881 2882 2883 2884 2884 2885 2886 2887 2888 2889 2890 2891 2891 2892 2893 2894 2894 2895 2896 2897 2898 2899 2900 2901 2902 2903 2904 2905 2906 2907 2908 2909 2910 2911 2912 2913 2914 2915 2917 2918 2919 2920 2921 2922 2923 2924 2925 2925 2926 2927 2928 2929 2930 2931 2932 2934 2934 2935 2936 2937 2937 2938 2938 2939 2939 2939 2940 2940 2940 2941 2942 2943 2944 2945 2946 2947 2948 2949 2949 2949 2949 2950 2951 2951
2878 2879 2879 2880 2881 2882 2883 2884 2884 2885 2886 2887 2888 2889 2889 2890 2891 2892 2893 2894 2894 2895 2896 2897 2898 2899 2900 2901 2902 2903 2904 2905 2906 2907 2908 2909 2910 2911 2912 2913 2914 2915 2916 2917 2919 2919 2920 2921 2922 2922 2923 2924 2925 2926 2927 2928 2929 2930 2931 2932 2933 2934 2934 2935 2936 2936 2936 2937 2937 2937 2938 2939 2939 2940 2941 2943 2944 2945 2946 2946 2947 2947 2947 2947 2948 2949
2876 2877 2878 2879 2879 2880 2881 2882 2883 2884 2884 2885 2886 2887 2888 2889 2889 2890 2891 2892 2893 2893 2894 2895 2896 2897 2898 2899 2900 2901 2902 2903 2904 2905 2905 2906 2907 2908 2909 2910 2911 2912 2914 2915 2916 2917 2917 2918 2919 2919 2920 2921 2922 2923 2924 2926 2927 2928 2928 2929 2930 2931 2932 2933 2933 2934 2934 2934 2934 2935 2936 2936 2937 2938 2939 2940 2941 2943 2944 2944 2945 2945 2944 2945 2945 2947